Regional Weather Roundup
Issued by NWS

Home | Current Version | Previous Version | Graphics & Text | Print | Product List | Glossary On
Versions: 1 2 3 4 5 6 7 8 9 10 11 12 13 14 15 16 17 18 19 20 21 22 23 24 25 26 27 28 29 30 31 32 33 34 35 36 37 38 39 40 41 42 43 44 45 46 47 48 49 50
000
ASUS43 KFSD 051410
RWRSD

WEATHER ROUNDUP FOR SOUTH DAKOTA
NATIONAL WEATHER SERVICE SIOUX FALLS SD
900 AM CDT SAT SEP 05 2015

NOTE: "FAIR" INDICATES FEW OR NO CLOUDS BELOW 12,000 FEET WITH NO
SIGNIFICANT WEATHER AND/OR OBSTRUCTIONS TO VISIBILITY.


SDZ001>005-009-010-012>017-051500-
NORTHWEST AND NORTH CENTRAL SOUTH DAKOTA

CITY           SKY/WX    TMP DP  RH WIND       PRES   REMARKS
BUFFALO          N/A     66  64  93 E9        29.77R
FAITH            N/A     69  66  90 NE9       29.82R
MOBRIDGE       CLOUDY    72  72 100 E13       29.76F FOG
$$

SDZ012>016-024>037-041>051-057-063-072>074-051500-
SOUTHWEST AND SOUTH CENTRAL SOUTH DAKOTA

CITY           SKY/WX    TMP DP  RH WIND       PRES   REMARKS
RAPID CTY ARPT CLOUDY    67  61  81 N6        29.83S
PIERRE         CLOUDY    71  67  87 CALM      29.78S
CUSTER         CLOUDY    62  52  69 N3        29.97S
PHILIP         LGT RAIN  68  64  87 E14       29.79F
PINE RIDGE     CLOUDY    66  61  84 E3        29.83R
WINNER         LGT RAIN  73  65  75 E6        29.80R
$$

SDZ004>011-016>023-039-040-051500-
NORTHEAST SOUTH DAKOTA

CITY           SKY/WX    TMP DP  RH WIND       PRES   REMARKS
ABERDEEN       CLOUDY    72  69  90 NE7       29.82R
WATERTOWN      PTSUNNY   72  68  87 S10       29.84S
BROOKINGS      PTSUNNY   73  66  78 S12       29.87S
SISSETON         N/A     70  70 100 S6        29.83S
$$

SDZ017-020-022-023-036>040-048>070-051500-
SOUTHEAST SOUTH DAKOTA

CITY           SKY/WX    TMP DP  RH WIND       PRES   REMARKS
SIOUX FALLS    CLOUDY    74  69  85 S12       29.86S
HURON          CLOUDY    72  68  87 SE10      29.78S
CHAMBERLAIN    CLOUDY    69  67  94 CALM      29.80R
MITCHELL       CLOUDY    75  69  81 S10       29.80S
YANKTON        PTSUNNY   75  68  78 S10       29.82S
$$

ABBREVIATIONS USED IN REMARKS
   TC - TEMPERATURE IN CELSIUS
  WCI - WIND CHILL INDEX
   HX - HEAT INDEX
  VSB - VISIBILITY



USA.gov is the U.S. government's official web portal to all federal, state and local government web resources and services.